TimeEDT,TemperatureF,Dew PointF,Humidity,Sea Level PressureIn,VisibilityMPH,Wind Direction,Wind SpeedMPH,Gust SpeedMPH,PrecipitationIn,Events,Conditions,WindDirDegrees,DateUTC
12:52 AM,57.0,50.0,77,30.19,10.0,Calm,Calm,-,N/A,,Overcast,0,2013-05-29 04:52:00
1:04 AM,57.2,50.0,77,30.17,10.0,South,3.5,-,N/A,,Overcast,170,2013-05-29 05:04:00
1:52 AM,57.0,52.0,83,30.17,10.0,South,8.1,-,N/A,,Overcast,190,2013-05-29 05:52:00
2:18 AM,57.2,53.6,88,30.15,10.0,South,5.8,-,N/A,,Overcast,170,2013-05-29 06:18:00
2:52 AM,57.0,53.1,87,30.16,10.0,South,5.8,-,0.00,Rain,Light Rain,180,2013-05-29 06:52:00
3:45 AM,55.4,53.6,94,30.12,8.0,SSE,3.5,-,0.04,Rain,Light Rain,150,2013-05-29 07:45:00
3:52 AM,55.9,54.0,93,30.13,10.0,Calm,Calm,-,0.04,Rain,Light Rain,0,2013-05-29 07:52:00
4:36 AM,55.4,53.6,94,30.11,4.0,Calm,Calm,-,0.03,Rain,Rain,0,2013-05-29 08:36:00
4:52 AM,55.0,54.0,96,30.13,2.5,Calm,Calm,-,0.06,Rain,Heavy Rain,0,2013-05-29 08:52:00
5:00 AM,55.4,53.6,94,30.11,2.5,Calm,Calm,-,0.02,Rain,Heavy Rain,0,2013-05-29 09:00:00
5:10 AM,55.4,53.6,94,30.11,4.0,Calm,Calm,-,0.07,Rain,Rain,0,2013-05-29 09:10:00
5:52 AM,55.0,54.0,96,30.14,8.0,Calm,Calm,-,0.15,Rain,Light Rain,0,2013-05-29 09:52:00
6:52 AM,55.9,54.0,93,30.14,10.0,Calm,Calm,-,0.01,,Overcast,0,2013-05-29 10:52:00
7:52 AM,55.9,54.0,93,30.13,10.0,Calm,Calm,-,0.01,,Overcast,0,2013-05-29 11:52:00
8:52 AM,57.0,55.0,93,30.13,4.0,Calm,Calm,-,N/A,,Overcast,0,2013-05-29 12:52:00
9:52 AM,57.0,55.0,93,30.13,10.0,Calm,Calm,-,N/A,,Overcast,0,2013-05-29 13:52:00
10:52 AM,57.9,55.9,93,30.12,7.0,South,4.6,-,0.01,Rain,Light Rain,170,2013-05-29 14:52:00
11:52 AM,59.0,57.0,93,30.09,10.0,SSW,5.8,-,0.01,,Overcast,200,2013-05-29 15:52:00
12:52 PM,60.1,57.0,90,30.09,10.0,South,3.5,-,N/A,,Overcast,180,2013-05-29 16:52:00
1:52 PM,61.0,57.9,90,30.09,10.0,SSW,3.5,-,N/A,,Overcast,200,2013-05-29 17:52:00
2:41 PM,62.6,59.0,88,30.06,10.0,Calm,Calm,-,N/A,,Overcast,0,2013-05-29 18:41:00
2:52 PM,64.0,59.0,84,30.07,10.0,Calm,Calm,-,N/A,,Overcast,0,2013-05-29 18:52:00
3:32 PM,64.4,59.0,83,30.06,10.0,South,3.5,-,N/A,,Overcast,180,2013-05-29 19:32:00
3:52 PM,64.9,60.1,84,30.08,10.0,Calm,Calm,-,N/A,,Overcast,0,2013-05-29 19:52:00
4:38 PM,66.2,60.8,83,30.05,10.0,Calm,Calm,-,N/A,,Overcast,0,2013-05-29 20:38:00
4:52 PM,68.0,61.0,78,30.06,10.0,Calm,Calm,-,N/A,,Overcast,0,2013-05-29 20:52:00
5:25 PM,68.0,62.6,83,30.05,10.0,Calm,Calm,-,N/A,,Overcast,0,2013-05-29 21:25:00
5:52 PM,69.1,62.1,78,30.05,10.0,Calm,Calm,-,N/A,,Mostly Cloudy,0,2013-05-29 21:52:00
6:24 PM,69.8,62.6,78,30.02,10.0,Calm,Calm,-,N/A,,Mostly Cloudy,0,2013-05-29 22:24:00
6:52 PM,68.0,63.0,84,30.04,10.0,SE,3.5,-,N/A,,Partly Cloudy,140,2013-05-29 22:52:00
7:52 PM,64.9,63.0,93,30.05,7.0,Calm,Calm,-,N/A,,Clear,0,2013-05-29 23:52:00
8:43 PM,64.4,62.6,94,30.04,3.0,Calm,Calm,-,0.02,Rain-Thunderstorm,Light Rain,0,2013-05-30 00:43:00
8:50 PM,64.4,62.6,94,30.04,2.5,Calm,Calm,-,0.02,Rain-Thunderstorm,Light Rain,0,2013-05-30 00:50:00
8:52 PM,64.0,63.0,96,30.06,2.5,Calm,Calm,-,0.02,Rain-Thunderstorm,Light Rain,0,2013-05-30 00:52:00
9:07 PM,64.4,62.6,94,30.03,1.5,Calm,Calm,-,0.02,Rain-Thunderstorm,Heavy Rain,0,2013-05-30 01:07:00
9:13 PM,64.4,62.6,94,30.03,2.5,Calm,Calm,-,0.03,Rain-Thunderstorm,Light Rain,0,2013-05-30 01:13:00
9:21 PM,64.4,62.6,94,30.03,3.0,Variable,4.6,-,0.04,Rain-Thunderstorm,Light Thunderstorms and Rain,0,2013-05-30 01:21:00
9:52 PM,64.9,63.0,93,30.05,3.0,South,6.9,-,0.09,Rain-Thunderstorm,Light Thunderstorms and Rain,170,2013-05-30 01:52:00
10:12 PM,64.4,62.6,94,30.02,10.0,South,6.9,-,0.02,Rain,Light Rain,180,2013-05-30 02:12:00
10:52 PM,64.0,61.0,90,30.03,10.0,SW,4.6,-,0.07,,Overcast,220,2013-05-30 02:52:00
11:43 PM,62.6,60.8,94,30.06,10.0,SW,8.1,-,0.03,,Scattered Clouds,220,2013-05-30 03:43:00
11:52 PM,62.1,60.1,93,30.08,10.0,SSW,9.2,-,0.03,,Mostly Cloudy,210,2013-05-30 03:52:00